Flag for Poland Weather past 2 weeks in Lublin, Poland

Now
61 °F

Passing clouds.


Feels Like: 61 °F
Forecast: 58 / 76 °F
Wind: 1 mph from South

Location: Lublin Radawiec

Current Time: Aug 28, 2015 at 7:12:14 AM

Latest Report: Aug 28, 2015 at 5:00 AM


Visibility: 7 mi

Pressure: 29.99 "Hg

Humidity: 88%

Dew point: 57 °F

Location of LublinLocation

Historic Weather in Lublin — Graph

°F

Lublin temperature yesterday

Maximum temperature yesterday: 82 °F (at 5:00 PM)
Minimum temperature yesterday: 52 °F (at 4:00 AM)
Average temperature yesterday: 67 °F

Past Weeks' High & Low Weather Summary

 TemperatureHumidityPressure
High87 °F (Aug 15, 4:00 PM)99% (Aug 26, 7:00 AM)30.37 "Hg (Aug 26, 7:00 AM)
Low49 °F (Aug 21, 6:00 AM)28% (Aug 16, 12:00 PM)29.78 "Hg (Aug 15, 5:00 PM)
Average68 °F53%30.07 "Hg
* Reported Aug 13 5:00 AM — Aug 28 5:00 AM, Lublin, Weather by CustomWeather, © 2015

Note: Actual official high and low records may vary slightly from our data, if they occured in-between our weather recording intervals... More about our weather records

Advertising

Lublin weather history for previous 24 hours

 ConditionsComfort  
Time TempWeatherWind HumidityBarometerVisibility
5:00 AM
Fri, Aug 28
61 °FPassing clouds.1 mph88%29.99 "Hg7 mi
4:00 AM62 °FPassing clouds.2 mph85%29.98 "Hg8 mi
3:00 AM62 °FPassing clouds.1 mph85%29.99 "Hg9 mi
2:00 AM62 °FPassing clouds.2 mph82%29.99 "Hg9 mi
1:00 AM62 °FPassing clouds.2 mph81%30.00 "Hg9 mi
10:00 PM
Thu, Aug 27
65 °FPassing clouds.1 mph70%30.01 "Hg11 mi
9:00 PM68 °FPassing clouds.1 mph63%30.01 "Hg14 mi
8:00 PM69 °FOvercast.1 mph63%30.01 "Hg12 mi
7:00 PM75 °FOvercast.No wind51%30.01 "Hg19 mi
6:00 PM81 °FOvercast.2 mph40%30.00 "Hg22 mi
5:00 PM82 °FOvercast.2 mph41%30.01 "Hg19 mi
4:00 PM81 °FOvercast.2 mph43%30.01 "Hg17 mi
3:00 PM81 °FPartly sunny.3 mph43%30.02 "Hg17 mi
2:00 PM80 °FPartly sunny.2 mph45%30.03 "Hg15 mi
1:00 PM80 °FPartly sunny.2 mph47%30.05 "Hg19 mi
12:00 PM76 °FOvercast.5 mph52%30.07 "Hg14 mi
11:00 AM74 °FOvercast.5 mph55%30.09 "Hg15 mi
10:00 AM72 °FOvercast.6 mph58%30.09 "Hg15 mi
9:00 AM67 °FPartly sunny.5 mph70%30.11 "Hg14 mi
8:00 AM61 °FPartly sunny.2 mph84%30.13 "Hg9 mi
7:00 AM56 °FFog.1 mph93%30.13 "Hg6 mi
Weather by CustomWeather, © 2015

See weather overviewHow to use our weather pages